| time (UTC) | temp F | wind direction | speed MPH | gust MPH | rain 1hr in | rain 24hr in | rain mn in | humidity % | barometer mb |
| 20260508014536 | 64 | 235 | 2.0 | 14.0 | 0.00 | 0.00 | 0.00 | 85 | 1013.9 |
| 20260508013029 | 65 | 252 | 3.0 | 11.0 | 0.00 | 0.00 | 0.00 | 84 | 1013.8 |
| 20260508011529 | 66 | 220 | 4.0 | 12.0 | 0.00 | 0.00 | 0.00 | 82 | 1013.9 |
| 20260508010043 | 66 | 244 | 4.0 | 13.0 | 0.00 | 0.00 | 0.00 | 81 | 1013.9 |
| 20260508004531 | 66 | 246 | 5.0 | 14.0 | 0.00 | 0.00 | 0.00 | 82 | 1013.7 |
| 20260508003024 | 67 | 267 | 9.0 | 16.0 | 0.00 | 0.00 | 0.00 | 80 | 1013.7 |
| 20260508001524 | 67 | 236 | 6.0 | 15.0 | 0.00 | 0.00 | 0.00 | 81 | 1013.7 |
| 20260508000023 | 68 | 279 | 7.0 | 18.0 | 0.00 | 0.00 | 0.00 | 80 | 1013.7 |
| 20260507234523 | 68 | 223 | 10.0 | 18.0 | 0.00 | 0.00 | 0.00 | 79 | 1013.8 |
| 20260507233021 | 68 | 236 | 10.0 | 17.0 | 0.00 | 0.00 | 0.00 | 79 | 1013.9 |
| 20260507231520 | 69 | 260 | 5.0 | 14.0 | 0.00 | 0.00 | 0.00 | 78 | 1014.0 |
| 20260507230025 | 69 | 244 | 5.0 | 14.0 | 0.00 | 0.00 | 0.00 | 79 | 1014.1 |
| 20260507224519 | 69 | 242 | 8.0 | 17.0 | 0.00 | 0.00 | 0.00 | 78 | 1014.1 |
| 20260507223017 | 69 | 238 | 8.0 | 15.0 | 0.00 | 0.00 | 0.00 | 77 | 1014.2 |
| 20260507221518 | 69 | 244 | 8.0 | 16.0 | 0.00 | 0.00 | 0.00 | 76 | 1014.5 |
| 20260507220013 | 70 | 259 | 6.0 | 14.0 | 0.00 | 0.00 | 0.00 | 77 | 1014.5 |
| 20260507214518 | 70 | 266 | 3.0 | 12.0 | 0.00 | 0.00 | 0.00 | 77 | 1014.7 |
| 20260507213010 | 70 | 221 | 4.0 | 12.0 | 0.00 | 0.00 | 0.00 | 76 | 1014.8 |
| 20260507211509 | 70 | 205 | 4.0 | 10.0 | 0.00 | 0.00 | 0.00 | 74 | 1014.9 |
| 20260507210106 | 70 | 242 | 4.0 | 10.0 | 0.00 | 0.00 | 0.00 | 77 | 1015.0 |
| 20260507204505 | 70 | 210 | 4.0 | 10.0 | 0.00 | 0.00 | 0.00 | 76 | 1015.2 |
| 20260507203003 | 70 | 229 | 3.0 | 9.0 | 0.00 | 0.00 | 0.00 | 76 | 1015.3 |
| 20260507201501 | 70 | 213 | 5.0 | 10.0 | 0.00 | 0.00 | 0.00 | 76 | 1015.3 |
| 20260507200100 | 69 | 198 | 5.0 | 9.0 | 0.00 | 0.00 | 0.00 | 76 | 1015.4 |
| 20260507194600 | 70 | 200 | 3.0 | 10.0 | 0.00 | 0.00 | 0.00 | 76 | 1015.6 |
| 20260507193057 | 70 | 189 | 5.0 | 11.0 | 0.00 | 0.00 | 0.00 | 77 | 1015.7 |
| 20260507191558 | 69 | 216 | 4.0 | 9.0 | 0.00 | 0.00 | 0.00 | 77 | 1015.9 |
| 20260507190056 | 70 | 218 | 4.0 | 11.0 | 0.00 | 0.00 | 0.00 | 76 | 1016.0 |
| 20260507184555 | 70 | 196 | 4.0 | 9.0 | 0.00 | 0.00 | 0.00 | 76 | 1016.2 |
| 20260507183053 | 69 | 220 | 2.0 | 7.0 | 0.00 | 0.00 | 0.00 | 77 | 1016.4 |
| 20260507181553 | 69 | 273 | 4.0 | 9.0 | 0.00 | 0.00 | 0.00 | 76 | 1016.3 |
| 20260507180058 | 69 | 231 | 2.0 | 8.0 | 0.00 | 0.00 | 0.00 | 76 | 1016.4 |
| 20260507174604 | 68 | 205 | 0.0 | 10.0 | 0.00 | 0.00 | 0.00 | 78 | 1016.3 |
| 20260507173051 | 69 | 195 | 3.0 | 9.0 | 0.00 | 0.00 | 0.00 | 76 | 1016.4 |
| 20260507171603 | 69 | 252 | 3.0 | 9.0 | 0.00 | 0.00 | 0.00 | 77 | 1016.5 |
| 20260507170050 | 69 | 227 | 1.0 | 9.0 | 0.00 | 0.00 | 0.00 | 77 | 1016.5 |
| 20260507164550 | 69 | 240 | 2.0 | 9.0 | 0.00 | 0.00 | 0.00 | 77 | 1016.5 |
| 20260507163050 | 68 | 229 | 2.0 | 7.0 | 0.00 | 0.00 | 0.00 | 78 | 1016.5 |
| 20260507161546 | 68 | 240 | 3.0 | 7.0 | 0.00 | 0.00 | 0.00 | 79 | 1016.5 |
| 20260507160048 | 67 | 227 | 1.0 | 5.0 | 0.00 | 0.00 | 0.00 | 79 | 1016.5 |
| 20260507154542 | 67 | 218 | 0.0 | 2.0 | 0.00 | 0.00 | 0.00 | 80 | 1016.6 |
| 20260507153044 | 67 | 229 | 0.0 | 2.0 | 0.00 | 0.00 | 0.00 | 80 | 1016.6 |
| 20260507151535 | 65 | 340 | 0.0 | 0.0 | 0.00 | 0.00 | 0.00 | 84 | 1016.8 |
| 20260507150034 | 64 | 325 | 0.0 | 0.0 | 0.00 | 0.00 | 0.00 | 88 | 1016.7 |
| 20260507144534 | 63 | 304 | 0.0 | 0.0 | 0.00 | 0.00 | 0.00 | 93 | 1016.6 |
| 20260507143025 | 61 | 294 | 0.0 | 0.0 | 0.00 | 0.00 | 0.00 | 97 | 1016.5 |
| 20260507141523 | 59 | 289 | 0.0 | 0.0 | 0.00 | 0.00 | 0.00 | 98 | 1016.3 |
| 20260507140021 | 56 | 288 | 0.0 | 0.0 | 0.00 | 0.00 | 0.00 | 96 | 1016.2 |
| 20260507134520 | 55 | 288 | 0.0 | 0.0 | 0.00 | 0.00 | 0.00 | 96 | 1016.1 |
| 20260507133020 | 54 | 288 | 0.0 | 0.0 | 0.00 | 0.00 | 0.00 | 94 | 1015.9 |
| 20260507131518 | 54 | 288 | 0.0 | 0.0 | 0.00 | 0.00 | 0.00 | 95 | 1015.8 |
| 20260507130025 | 54 | 288 | 0.0 | 0.0 | 0.00 | 0.00 | 0.00 | 94 | 1015.7 |
| 20260507124522 | 54 | 288 | 0.0 | 0.0 | 0.00 | 0.00 | 0.00 | 94 | 1015.7 |
| 20260507123016 | 54 | 288 | 0.0 | 0.0 | 0.00 | 0.00 | 0.00 | 94 | 1015.6 |
| 20260507121514 | 54 | 288 | 0.0 | 0.0 | 0.00 | 0.00 | 0.00 | 94 | 1015.6 |
| 20260507120013 | 54 | 288 | 0.0 | 0.0 | 0.00 | 0.00 | 0.00 | 93 | 1015.7 |
| 20260507114512 | 55 | 288 | 0.0 | 0.0 | 0.00 | 0.00 | 0.00 | 93 | 1015.7 |
| 20260507113015 | 55 | 288 | 0.0 | 0.0 | 0.00 | 0.00 | 0.00 | 93 | 1015.8 |
| 20260507111513 | 55 | 288 | 0.0 | 0.0 | 0.00 | 0.00 | 0.00 | 93 | 1015.8 |
| 20260507110022 | 55 | 288 | 0.0 | 0.0 | 0.00 | 0.00 | 0.00 | 93 | 1016.0 |
| 20260507104506 | 55 | 288 | 0.0 | 0.0 | 0.00 | 0.00 | 0.00 | 92 | 1016.0 |
| 20260507103004 | 56 | 288 | 0.0 | 0.0 | 0.00 | 0.00 | 0.00 | 92 | 1016.1 |
| 20260507101503 | 56 | 288 | 0.0 | 0.0 | 0.00 | 0.00 | 0.00 | 92 | 1016.2 |
| 20260507100003 | 56 | 288 | 0.0 | 0.0 | 0.00 | 0.00 | 0.00 | 92 | 1016.2 |
| 20260507094559 | 57 | 288 | 0.0 | 0.0 | 0.00 | 0.00 | 0.00 | 92 | 1016.3 |
| 20260507093057 | 57 | 288 | 0.0 | 0.0 | 0.00 | 0.00 | 0.00 | 92 | 1016.3 |
| 20260507091555 | 57 | 288 | 0.0 | 0.0 | 0.00 | 0.00 | 0.00 | 92 | 1016.5 |
| 20260507090055 | 57 | 288 | 0.0 | 0.0 | 0.00 | 0.00 | 0.00 | 91 | 1016.7 |
| 20260507084551 | 58 | 288 | 0.0 | 0.0 | 0.00 | 0.00 | 0.00 | 91 | 1016.8 |
| 20260507083048 | 58 | 288 | 0.0 | 0.0 | 0.00 | 0.00 | 0.00 | 91 | 1016.9 |
| 20260507081546 | 58 | 288 | 0.0 | 0.0 | 0.00 | 0.00 | 0.00 | 91 | 1017.0 |
| 20260507080045 | 58 | 288 | 0.0 | 0.0 | 0.00 | 0.00 | 0.00 | 92 | 1017.1 |
| 20260507074556 | 59 | 288 | 0.0 | 0.0 | 0.00 | 0.00 | 0.00 | 92 | 1017.0 |
| 20260507073046 | 59 | 288 | 0.0 | 0.0 | 0.00 | 0.00 | 0.00 | 91 | 1017.0 |
| 20260507071541 | 59 | 288 | 0.0 | 0.0 | 0.00 | 0.00 | 0.00 | 91 | 1017.0 |
| 20260507070048 | 59 | 288 | 0.0 | 0.0 | 0.00 | 0.00 | 0.00 | 90 | 1017.2 |
| 20260507064538 | 60 | 288 | 0.0 | 0.0 | 0.00 | 0.00 | 0.00 | 90 | 1017.2 |
| 20260507063052 | 60 | 288 | 0.0 | 0.0 | 0.00 | 0.00 | 0.00 | 90 | 1017.3 |
| 20260507061537 | 60 | 288 | 0.0 | 0.0 | 0.00 | 0.00 | 0.00 | 89 | 1017.3 |
| 20260507060044 | 61 | 288 | 0.0 | 0.0 | 0.00 | 0.00 | 0.00 | 90 | 1017.3 |
| 20260507054542 | 61 | 288 | 0.0 | 7.0 | 0.00 | 0.00 | 0.00 | 89 | 1017.3 |
| 20260507053039 | 61 | 277 | 2.0 | 8.0 | 0.00 | 0.00 | 0.00 | 89 | 1017.3 |
| 20260507051536 | 61 | 278 | 3.0 | 8.0 | 0.00 | 0.00 | 0.00 | 89 | 1017.3 |
| 20260507050037 | 61 | 263 | 3.0 | 9.0 | 0.00 | 0.00 | 0.00 | 89 | 1017.2 |
| 20260507044534 | 61 | 272 | 3.0 | 9.0 | 0.00 | 0.00 | 0.00 | 89 | 1017.2 |
| 20260507043037 | 62 | 265 | 4.0 | 10.0 | 0.00 | 0.00 | 0.00 | 88 | 1017.1 |
| 20260507041533 | 62 | 276 | 2.0 | 8.0 | 0.00 | 0.00 | 0.00 | 87 | 1017.1 |
| 20260507040034 | 62 | 275 | 4.0 | 7.0 | 0.00 | 0.00 | 0.00 | 87 | 1016.9 |
| 20260507034537 | 62 | 277 | 2.0 | 8.0 | 0.00 | 0.00 | 0.00 | 86 | 1016.7 |
| 20260507033032 | 62 | 262 | 2.0 | 7.0 | 0.00 | 0.00 | 0.00 | 85 | 1016.6 |
| 20260507031530 | 62 | 288 | 3.0 | 10.0 | 0.00 | 0.00 | 0.00 | 85 | 1016.4 |
| 20260507030031 | 63 | 284 | 6.0 | 14.0 | 0.00 | 0.00 | 0.00 | 85 | 1016.3 |
| 20260507024530 | 63 | 267 | 6.0 | 11.0 | 0.00 | 0.00 | 0.00 | 84 | 1016.2 |
| 20260507023029 | 63 | 280 | 7.0 | 14.0 | 0.00 | 0.00 | 0.00 | 83 | 1016.0 |
| 20260507021530 | 64 | 281 | 8.0 | 15.0 | 0.00 | 0.00 | 0.00 | 82 | 1016.0 |
| 20260507020039 | 64 | 252 | 9.0 | 16.0 | 0.00 | 0.00 | 0.00 | 81 | 1015.8 |